{"data":{"norad_id":62428,"epoch":"2026-05-25T00:09:05.311008Z","epoch_age_seconds":70659,"freshness":"FRESH","line1":"1 62428U 24249V   26145.00631147  .00016458  00000+0  60614-3 0  9996","line2":"2 62428  42.9997 251.0059 0001770 274.7192  85.3457 15.27586892 79396","mean_motion":15.27586892,"eccentricity":0.000177,"inclination_deg":42.9997,"raan_deg":251.0059,"arg_perigee_deg":274.7192,"mean_anomaly_deg":85.3457,"bstar":0.00060614,"rev_number":7939,"period_min":94.266323411212,"perigee_km":481.81403270362,"apogee_km":484.2428852761,"semimajor_km":6861.1654589899,"source":"CELESTRAK","updated_at":"2026-05-25T13:38:19.656169Z"}}